Location: Chester
(43.2628°N, 72.5951°W)
Time: 22:24:13
(UTC-04:00)

ISS - Visible Passes

Search period start: 22 July 2018 00:00
Search period end: 01 August 2018 00:00
Orbit: 402 x 408 km, 51.6° (Epoch: 23 July)

Date Brightness Start Highest point End Pass type
(mag) Time Alt. Az. Time Alt. Az. Time Alt. Az.
22 Jul -1.0 00:44:34 10° NW 00:47:01 19° N 00:49:28 10° NE visible
22 Jul -2.4 02:21:01 10° NW 02:24:09 38° NNE 02:27:16 10° E visible
22 Jul -3.2 03:57:36 10° WNW 04:00:36 33° SW 04:03:36 10° SSE visible
22 Jul -2.0 22:14:27 10° W 22:17:29 34° NNW 22:20:32 10° NE visible
22 Jul -0.9 23:52:14 10° NW 23:54:39 19° N 23:57:05 10° NE visible
23 Jul -1.5 01:29:00 10° NW 01:30:56 23° NNW 01:30:56 23° NNW visible
23 Jul -2.9 21:22:04 10° WSW 21:25:16 51° NNW 21:28:30 10° NE visible
23 Jul -1.1 22:59:46 10° WNW 23:02:18 20° N 23:04:50 10° NE visible
24 Jul -1.3 00:36:55 10° NW 00:39:34 22° NNE 00:39:34 22° NNE visible
24 Jul -1.3 22:07:14 10° WNW 22:09:57 23° NNW 22:12:41 10° NE visible
24 Jul -1.1 23:44:45 10° NW 23:47:14 19° N 23:48:40 15° NE visible
25 Jul -0.7 01:21:07 10° NW 01:21:17 11° NW 01:21:17 11° NW visible
25 Jul -1.8 21:14:41 10° W 21:17:38 30° NNW 21:20:35 10° NE visible
25 Jul -1.0 22:52:26 10° NW 22:54:51 18° N 22:57:15 10° NE visible
26 Jul -1.2 00:29:04 10° NW 00:30:33 21° NNW 00:30:33 21° NNW visible
26 Jul -1.1 21:59:58 10° NW 22:02:26 19° N 22:04:55 10° NE visible
26 Jul -1.6 23:36:58 10° NW 23:39:43 24° NNE 23:39:53 24° NNE visible
27 Jul -1.3 21:07:24 10° WNW 21:10:03 22° NNW 21:12:41 10° NE visible
27 Jul -1.3 22:44:48 10° NW 22:47:20 20° N 22:49:17 13° NE visible
28 Jul -1.0 00:21:07 10° NW 00:21:55 16° NW 00:21:55 16° NW visible
28 Jul -1.2 21:52:30 10° NW 21:54:55 19° N 21:57:20 10° NE visible
28 Jul -1.9 23:29:01 10° NW 23:31:19 30° N 23:31:19 30° N visible
29 Jul -1.2 21:00:03 10° NW 21:02:28 19° N 21:04:54 10° NE visible
29 Jul -1.9 22:36:54 10° NW 22:39:44 26° NNE 22:40:47 21° NE visible
30 Jul -0.7 00:13:11 10° WNW 00:13:25 12° WNW 00:13:25 12° WNW visible
30 Jul -1.5 21:44:43 10° NW 21:47:19 21° N 21:49:54 10° ENE visible
30 Jul -2.0 23:21:00 10° NW 23:22:53 31° NW 23:22:53 31° NW visible
31 Jul -1.4 20:52:26 10° NW 20:54:52 19° N 20:57:18 10° NE visible
31 Jul -2.8 22:28:51 10° NW 22:31:59 39° NNE 22:32:23 37° NE visible
